Year,Month,Day,Hour,Minute,Value (Times are PST for windspeed in km/hr)
2010,05,18,00,00,3.30
2010,05,18,00,01,4.20
2010,05,18,00,02,3.60
2010,05,18,00,03,2.50
2010,05,18,00,04,0.60
2010,05,18,00,05,0.00
2010,05,18,00,06,0.10
2010,05,18,00,07,0.20
2010,05,18,00,08,0.30
2010,05,18,00,09,0.00
2010,05,18,00,10,0.00
2010,05,18,00,11,0.00
2010,05,18,00,12,0.00
2010,05,18,00,13,0.00
2010,05,18,00,14,0.00
2010,05,18,00,15,0.20
2010,05,18,00,16,1.40
2010,05,18,00,17,1.90
2010,05,18,00,18,2.50
2010,05,18,00,19,2.50
2010,05,18,00,20,2.40
2010,05,18,00,21,1.50
2010,05,18,00,22,1.50
2010,05,18,00,23,1.30
2010,05,18,00,24,0.80
2010,05,18,00,25,0.00
2010,05,18,00,26,1.30
2010,05,18,00,27,1.50
2010,05,18,00,28,1.40
2010,05,18,00,29,1.50
2010,05,18,00,30,2.50
2010,05,18,00,31,2.70
2010,05,18,00,32,2.50
2010,05,18,00,33,3.10
2010,05,18,00,34,4.10
2010,05,18,00,35,2.40
2010,05,18,00,36,3.00
2010,05,18,00,37,2.00
2010,05,18,00,38,2.60
2010,05,18,00,39,2.60
2010,05,18,00,40,2.10
2010,05,18,00,41,2.90
2010,05,18,00,42,3.30
2010,05,18,00,43,3.20
2010,05,18,00,44,3.80
2010,05,18,00,45,3.00
2010,05,18,00,46,3.90
2010,05,18,00,47,3.30
2010,05,18,00,48,3.40
2010,05,18,00,49,3.60
2010,05,18,00,50,4.30
2010,05,18,00,51,3.80
2010,05,18,00,52,3.20
2010,05,18,00,53,3.40
2010,05,18,00,54,4.10
2010,05,18,00,55,4.70
2010,05,18,00,56,5.10
2010,05,18,00,57,3.90
2010,05,18,00,58,3.30
2010,05,18,00,59,4.00
2010,05,18,01,00,3.80
2010,05,18,01,01,3.70
2010,05,18,01,02,3.30
2010,05,18,01,03,3.50
2010,05,18,01,04,4.50
2010,05,18,01,05,3.90
2010,05,18,01,06,3.30
2010,05,18,01,07,2.80
2010,05,18,01,08,0.80
2010,05,18,01,09,0.00
2010,05,18,01,10,1.00
2010,05,18,01,11,0.20
2010,05,18,01,12,2.50
2010,05,18,01,13,2.00
2010,05,18,01,14,1.80
2010,05,18,01,15,2.70
2010,05,18,01,16,1.50
2010,05,18,01,17,2.70
2010,05,18,01,18,2.60
2010,05,18,01,19,2.10
2010,05,18,01,20,1.80
2010,05,18,01,21,0.20
2010,05,18,01,22,0.00
2010,05,18,01,23,0.90
2010,05,18,01,24,0.00
2010,05,18,01,25,0.30
2010,05,18,01,26,1.10
2010,05,18,01,27,1.10
2010,05,18,01,28,0.10
2010,05,18,01,29,0.00
2010,05,18,01,30,0.30
2010,05,18,01,31,1.40
2010,05,18,01,32,1.90
2010,05,18,01,33,0.90
2010,05,18,01,34,1.50
2010,05,18,01,35,1.70
2010,05,18,01,36,0.90
2010,05,18,01,37,0.80
2010,05,18,01,38,0.10
2010,05,18,01,39,0.00
2010,05,18,01,40,0.70
2010,05,18,01,41,1.70
2010,05,18,01,42,1.80
2010,05,18,01,43,0.80
2010,05,18,01,44,0.30
2010,05,18,01,45,0.00
2010,05,18,01,46,0.00
2010,05,18,01,47,0.00
2010,05,18,01,48,0.70
2010,05,18,01,49,1.50
2010,05,18,01,50,1.70
2010,05,18,01,51,2.00
2010,05,18,01,52,1.70
2010,05,18,01,53,2.50
2010,05,18,01,54,1.90
2010,05,18,01,55,2.60
2010,05,18,01,56,2.70
2010,05,18,01,57,3.00
2010,05,18,01,58,3.40
2010,05,18,01,59,3.30
2010,05,18,02,00,3.30
2010,05,18,02,01,3.40
2010,05,18,02,02,4.10
2010,05,18,02,03,4.10
2010,05,18,02,04,3.80
2010,05,18,02,05,3.40
2010,05,18,02,06,3.60
2010,05,18,02,07,4.50
2010,05,18,02,08,5.10
2010,05,18,02,09,3.30
2010,05,18,02,10,3.00
2010,05,18,02,11,4.30
2010,05,18,02,12,5.30
2010,05,18,02,13,4.30
2010,05,18,02,14,3.70
2010,05,18,02,15,3.00
2010,05,18,02,16,3.00
2010,05,18,02,17,3.90
2010,05,18,02,18,3.70
2010,05,18,02,19,3.70
2010,05,18,02,20,3.30
2010,05,18,02,21,2.40
2010,05,18,02,22,1.10
2010,05,18,02,23,1.50
2010,05,18,02,24,3.10
2010,05,18,02,25,4.30
2010,05,18,02,26,4.10
2010,05,18,02,27,3.80
2010,05,18,02,28,2.30
2010,05,18,02,29,1.90
2010,05,18,02,30,1.60
2010,05,18,02,31,2.70
2010,05,18,02,32,1.50
2010,05,18,02,33,1.50
2010,05,18,02,34,2.30
2010,05,18,02,35,2.40
2010,05,18,02,36,1.60
2010,05,18,02,37,2.40
2010,05,18,02,38,2.70
2010,05,18,02,39,2.70
2010,05,18,02,40,1.90
2010,05,18,02,41,1.80
2010,05,18,02,42,1.90
2010,05,18,02,43,1.60
2010,05,18,02,44,0.90
2010,05,18,02,45,1.60
2010,05,18,02,46,0.60
2010,05,18,02,47,0.90
2010,05,18,02,48,1.50
2010,05,18,02,49,2.10
2010,05,18,02,50,3.40
2010,05,18,02,51,3.50
2010,05,18,02,52,3.50
2010,05,18,02,53,3.00
2010,05,18,02,54,1.90
2010,05,18,02,55,1.60
2010,05,18,02,56,1.50
2010,05,18,02,57,1.10
2010,05,18,02,58,0.40
2010,05,18,02,59,1.90
2010,05,18,03,00,0.40
2010,05,18,03,01,0.60
2010,05,18,03,02,0.80
2010,05,18,03,03,0.70
2010,05,18,03,04,1.90
2010,05,18,03,05,2.80
2010,05,18,03,06,3.50
2010,05,18,03,07,3.70
2010,05,18,03,08,3.50
2010,05,18,03,09,4.00
2010,05,18,03,10,4.00
2010,05,18,03,11,3.80
2010,05,18,03,12,3.70
2010,05,18,03,13,4.30
2010,05,18,03,14,4.80
2010,05,18,03,15,3.40
2010,05,18,03,16,2.10
2010,05,18,03,17,2.00
2010,05,18,03,18,1.60
2010,05,18,03,19,1.60
2010,05,18,03,20,1.60
2010,05,18,03,21,1.60
2010,05,18,03,22,1.60
2010,05,18,03,23,1.60
2010,05,18,03,24,1.60
2010,05,18,03,25,1.60
2010,05,18,03,26,1.60
2010,05,18,03,27,1.60
2010,05,18,13,21,19.40
2010,05,18,13,22,19.60
2010,05,18,13,23,17.80
2010,05,18,13,24,18.30
2010,05,18,13,25,19.70
2010,05,18,13,26,22.20
2010,05,18,13,27,22.90
2010,05,18,13,28,20.70
2010,05,18,13,29,16.70
2010,05,18,13,30,15.60
2010,05,18,13,31,19.30
2010,05,18,13,32,16.90
2010,05,18,13,33,17.10
2010,05,18,13,34,13.50
2010,05,18,13,35,19.30
2010,05,18,13,36,19.00
2010,05,18,13,37,18.40
2010,05,18,13,38,20.10
2010,05,18,13,39,14.60
2010,05,18,13,40,19.00
2010,05,18,13,41,16.30
2010,05,18,13,42,22.70
2010,05,18,13,43,18.30
2010,05,18,13,44,20.10
2010,05,18,13,45,22.90
2010,05,18,13,46,24.50
2010,05,18,13,47,24.60
2010,05,18,13,48,25.20
2010,05,18,13,49,27.60
2010,05,18,13,50,25.70
2010,05,18,13,51,21.40
2010,05,18,13,52,23.30
2010,05,18,13,53,25.40
2010,05,18,13,54,21.40
2010,05,18,13,55,18.50
2010,05,18,13,56,17.70
2010,05,18,13,57,18.40
2010,05,18,13,58,18.60
2010,05,18,13,59,20.10
2010,05,18,14,00,20.80
2010,05,18,14,01,19.70
2010,05,18,14,02,21.80
2010,05,18,14,03,21.90
2010,05,18,14,04,21.00
2010,05,18,14,05,21.30
2010,05,18,14,06,21.60
2010,05,18,14,07,22.20
2010,05,18,14,08,17.00
2010,05,18,14,09,22.00
2010,05,18,14,10,15.90
2010,05,18,14,11,10.10
2010,05,18,14,12,19.70
2010,05,18,14,13,19.70
2010,05,18,14,14,18.40
2010,05,18,14,15,15.90
2010,05,18,14,16,16.40
2010,05,18,14,17,16.30
2010,05,18,14,18,17.50
2010,05,18,14,19,19.10
2010,05,18,14,20,12.50
2010,05,18,14,21,16.70
2010,05,18,14,22,14.90
2010,05,18,14,23,20.70
2010,05,18,14,24,19.10
2010,05,18,14,25,17.40
2010,05,18,14,26,22.00
2010,05,18,14,27,21.30
2010,05,18,14,28,19.30
2010,05,18,14,29,18.60
2010,05,18,14,30,14.70
2010,05,18,14,31,20.90
2010,05,18,14,32,21.60
2010,05,18,14,33,19.10
2010,05,18,14,34,17.00
2010,05,18,14,35,16.30
2010,05,18,14,36,11.70
2010,05,18,14,37,23.60
2010,05,18,14,38,17.60
2010,05,18,14,39,17.20
2010,05,18,14,40,11.30
2010,05,18,14,41,12.30
2010,05,18,14,42,20.30
2010,05,18,14,43,19.80
2010,05,18,14,44,21.30
2010,05,18,14,45,17.70
2010,05,18,14,46,18.00
2010,05,18,14,47,16.50
2010,05,18,14,48,10.90
2010,05,18,14,49,14.10
2010,05,18,14,50,13.30
2010,05,18,14,51,9.70
2010,05,18,14,52,9.40
2010,05,18,14,53,13.40
2010,05,18,14,54,11.40
2010,05,18,14,55,13.30
2010,05,18,14,56,14.20
2010,05,18,14,57,13.60
2010,05,18,14,58,11.30
2010,05,18,14,59,11.20
2010,05,18,15,00,9.00
2010,05,18,15,01,14.20
2010,05,18,15,02,13.00
2010,05,18,15,03,15.20
2010,05,18,15,04,21.00
2010,05,18,15,05,23.40
2010,05,18,15,06,25.70
2010,05,18,15,07,28.70
2010,05,18,15,08,26.30
2010,05,18,15,09,22.20
2010,05,18,15,10,25.50
2010,05,18,15,11,20.60
2010,05,18,15,12,19.00
2010,05,18,15,13,19.50
2010,05,18,15,14,29.80
2010,05,18,15,15,24.70
2010,05,18,15,16,23.50
2010,05,18,15,17,23.00
2010,05,18,15,18,17.10
2010,05,18,15,19,20.60
2010,05,18,15,20,18.80
2010,05,18,15,21,19.90
2010,05,18,15,22,24.60
2010,05,18,15,23,24.60
2010,05,18,15,24,17.40
2010,05,18,15,25,13.90
2010,05,18,15,26,22.40
2010,05,18,15,27,22.20
2010,05,18,15,28,22.50
2010,05,18,15,29,18.80
2010,05,18,15,30,19.40
2010,05,18,15,31,20.90
2010,05,18,15,32,18.40
2010,05,18,15,33,13.70
2010,05,18,15,34,15.90
2010,05,18,15,35,18.30
2010,05,18,15,36,16.00
2010,05,18,15,37,13.60
2010,05,18,15,38,11.00
2010,05,18,15,39,11.70
2010,05,18,15,40,14.00
2010,05,18,15,41,17.40
2010,05,18,15,42,16.10
2010,05,18,15,43,16.50
2010,05,18,15,44,17.00
2010,05,18,15,45,14.30
2010,05,18,15,46,17.60
2010,05,18,15,47,13.90
2010,05,18,15,48,14.80
2010,05,18,15,49,17.10
2010,05,18,15,50,18.10
2010,05,18,15,51,19.50
2010,05,18,15,52,15.80
2010,05,18,15,53,18.50
2010,05,18,15,54,17.10
2010,05,18,15,55,18.00
2010,05,18,15,56,21.80
2010,05,18,15,57,21.40
2010,05,18,15,58,17.00
2010,05,18,15,59,13.30
2010,05,18,16,00,17.90
2010,05,18,16,01,19.50
2010,05,18,16,02,20.40
2010,05,18,16,03,16.80
2010,05,18,16,04,12.30
2010,05,18,16,05,9.50
2010,05,18,16,06,14.10
2010,05,18,16,07,19.70
2010,05,18,16,08,16.30
2010,05,18,16,09,15.60
2010,05,18,16,10,19.10
2010,05,18,16,11,20.70
2010,05,18,16,12,16.30
2010,05,18,16,13,13.80
2010,05,18,16,14,14.80
2010,05,18,16,15,12.20
2010,05,18,16,16,13.70
2010,05,18,16,17,14.70
2010,05,18,16,18,23.10
2010,05,18,16,19,20.30
2010,05,18,16,20,19.50
2010,05,18,16,21,24.60
2010,05,18,16,22,20.00
2010,05,18,16,23,18.90
2010,05,18,16,24,18.50
2010,05,18,16,25,17.40
2010,05,18,16,26,19.60
2010,05,18,16,27,16.20
2010,05,18,16,28,15.40
2010,05,18,16,29,14.60
2010,05,18,16,30,22.50
2010,05,18,16,31,18.70
2010,05,18,16,32,20.00
2010,05,18,16,33,21.60
2010,05,18,16,34,17.20
2010,05,18,16,35,11.10
2010,05,18,16,36,12.30
2010,05,18,16,37,11.50
2010,05,18,16,38,13.10
2010,05,18,16,39,13.90
2010,05,18,16,40,16.00
2010,05,18,16,41,14.90
2010,05,18,16,42,15.10
2010,05,18,16,43,15.00
2010,05,18,16,44,12.80
2010,05,18,16,45,9.10
2010,05,18,16,46,16.70
2010,05,18,16,47,17.90
2010,05,18,16,48,13.10
2010,05,18,16,49,10.30
2010,05,18,16,50,16.80
2010,05,18,16,51,16.40
2010,05,18,16,52,13.40
2010,05,18,16,53,16.30
2010,05,18,16,54,18.80
2010,05,18,16,55,11.50
2010,05,18,16,56,10.50
2010,05,18,16,57,12.30
2010,05,18,16,58,8.50
2010,05,18,16,59,8.10
2010,05,18,17,00,17.40
2010,05,18,17,01,16.90
2010,05,18,17,02,13.90
2010,05,18,17,03,9.80
2010,05,18,17,04,11.40
2010,05,18,17,05,4.90
2010,05,18,17,06,6.30
2010,05,18,17,07,10.10
2010,05,18,17,08,12.40
2010,05,18,17,09,10.40
2010,05,18,17,10,13.30
2010,05,18,17,11,12.50
2010,05,18,17,12,9.10
2010,05,18,17,13,8.00
2010,05,18,17,14,8.50
2010,05,18,17,15,9.30
2010,05,18,17,16,11.80
2010,05,18,17,17,10.50
2010,05,18,17,18,9.30
2010,05,18,17,19,13.10
2010,05,18,17,20,12.00
2010,05,18,17,21,12.20
2010,05,18,17,22,9.10
2010,05,18,17,23,7.80
2010,05,18,17,24,9.50
2010,05,18,17,25,9.30
2010,05,18,17,26,11.90
2010,05,18,17,27,6.00
2010,05,18,17,28,5.30
2010,05,18,17,29,6.80
2010,05,18,17,30,7.70
2010,05,18,17,31,7.60
2010,05,18,17,32,6.00
2010,05,18,17,33,6.00
2010,05,18,17,34,5.60
2010,05,18,17,35,7.70
2010,05,18,17,36,4.40
2010,05,18,17,37,7.10
2010,05,18,17,38,9.80
2010,05,18,17,39,13.40
2010,05,18,17,40,13.40
2010,05,18,17,41,9.80
2010,05,18,17,42,9.30
2010,05,18,17,43,10.00
2010,05,18,17,44,8.30
2010,05,18,17,45,9.50
2010,05,18,17,46,8.70
2010,05,18,17,47,8.00
2010,05,18,17,48,6.10
2010,05,18,17,49,7.50
2010,05,18,17,50,11.90
2010,05,18,17,51,9.30
2010,05,18,17,52,5.90
2010,05,18,17,53,7.40
2010,05,18,17,54,11.40
2010,05,18,17,55,8.60
2010,05,18,17,56,7.00
2010,05,18,17,57,6.00
2010,05,18,17,58,6.60
2010,05,18,17,59,3.10
2010,05,18,18,00,8.10
2010,05,18,18,01,6.90
2010,05,18,18,02,6.60
2010,05,18,18,03,5.10
2010,05,18,18,04,6.90
2010,05,18,18,05,6.00
2010,05,18,18,06,2.10
2010,05,18,18,07,0.60
2010,05,18,18,08,7.50
2010,05,18,18,09,7.50
2010,05,18,18,10,5.70
2010,05,18,18,11,5.90
2010,05,18,18,12,8.60
2010,05,18,18,13,8.60
2010,05,18,18,14,12.00
2010,05,18,18,15,17.50
2010,05,18,18,16,12.30
2010,05,18,18,17,5.80
2010,05,18,18,18,12.30
2010,05,18,18,19,10.50
2010,05,18,18,20,7.70
2010,05,18,18,21,11.60
2010,05,18,18,22,10.00
2010,05,18,18,23,8.50
2010,05,18,18,24,8.40
2010,05,18,18,25,5.60
2010,05,18,18,26,6.10
2010,05,18,18,27,8.00
2010,05,18,18,28,6.70
2010,05,18,18,29,8.60
2010,05,18,18,30,9.60
2010,05,18,18,31,9.70
2010,05,18,18,32,9.10
2010,05,18,18,33,11.20
2010,05,18,18,34,7.90
2010,05,18,18,35,8.90
2010,05,18,18,36,8.80
2010,05,18,18,37,11.30
2010,05,18,18,38,13.80
2010,05,18,18,39,14.00
2010,05,18,18,40,14.20
2010,05,18,18,41,11.10
2010,05,18,18,42,8.70
2010,05,18,18,43,12.30
2010,05,18,18,44,12.90
2010,05,18,18,45,10.80
2010,05,18,18,46,10.50
2010,05,18,18,47,9.10
2010,05,18,18,48,10.00
2010,05,18,18,49,7.70
2010,05,18,18,50,15.80
2010,05,18,18,51,14.70
2010,05,18,18,52,15.20
2010,05,18,18,53,14.40
2010,05,18,18,54,11.40
2010,05,18,18,55,9.10
2010,05,18,18,56,8.70
2010,05,18,18,57,5.90
2010,05,18,18,58,9.30
2010,05,18,18,59,7.00
2010,05,18,19,00,12.30
2010,05,18,19,01,9.70
2010,05,18,19,02,9.90
2010,05,18,19,03,8.70
2010,05,18,19,04,5.20
2010,05,18,19,05,8.40
2010,05,18,19,06,11.50
2010,05,18,19,07,13.30
2010,05,18,19,08,13.60
2010,05,18,19,09,9.20
2010,05,18,19,10,9.60
2010,05,18,19,11,6.40
2010,05,18,19,12,6.70
2010,05,18,19,13,5.80
2010,05,18,19,14,11.00
2010,05,18,19,15,9.80
2010,05,18,19,16,8.40
2010,05,18,19,17,7.10
2010,05,18,19,18,13.90
2010,05,18,19,19,10.80
2010,05,18,19,20,9.10
2010,05,18,19,21,8.90
2010,05,18,19,22,7.60
2010,05,18,19,23,5.60
2010,05,18,19,24,5.30
2010,05,18,19,25,4.70
2010,05,18,19,26,1.60
2010,05,18,19,27,8.30
2010,05,18,19,28,9.90
2010,05,18,19,29,15.20
2010,05,18,19,30,7.90
2010,05,18,19,31,9.20
2010,05,18,19,32,5.90
2010,05,18,19,33,4.10
2010,05,18,19,34,6.10
2010,05,18,19,35,5.30
2010,05,18,19,36,5.60
2010,05,18,19,37,3.10
2010,05,18,19,38,3.90
2010,05,18,19,39,5.00
2010,05,18,19,40,2.30
2010,05,18,19,41,4.70
2010,05,18,19,42,3.00
2010,05,18,19,43,4.40
2010,05,18,19,44,4.40
2010,05,18,19,45,4.30
2010,05,18,19,46,4.70
2010,05,18,19,47,8.60
2010,05,18,19,48,6.50
2010,05,18,19,49,7.60
2010,05,18,19,50,14.50
2010,05,18,19,51,9.30
2010,05,18,19,52,4.20
2010,05,18,19,53,5.60
2010,05,18,19,54,6.90
2010,05,18,19,55,5.70
2010,05,18,19,56,8.90
2010,05,18,19,57,4.70
2010,05,18,19,58,5.00
2010,05,18,19,59,4.70
2010,05,18,20,00,1.50
2010,05,18,20,01,3.60
2010,05,18,20,02,2.40
2010,05,18,20,03,7.20
2010,05,18,20,04,9.10
2010,05,18,20,05,9.20
2010,05,18,20,06,3.10
2010,05,18,20,07,4.70
2010,05,18,20,08,5.50
2010,05,18,20,09,11.30
2010,05,18,20,10,6.10
2010,05,18,20,11,4.60
2010,05,18,20,12,5.80
2010,05,18,20,13,5.50
2010,05,18,20,14,6.90
2010,05,18,20,15,11.10
2010,05,18,20,16,4.60
2010,05,18,20,17,9.00
2010,05,18,20,18,5.10
2010,05,18,20,19,6.90
2010,05,18,20,20,9.50
2010,05,18,20,21,12.30
2010,05,18,20,22,13.80
2010,05,18,20,23,13.30
2010,05,18,20,24,12.60
2010,05,18,20,25,9.70
2010,05,18,20,26,7.40
2010,05,18,20,27,6.40
2010,05,18,20,28,8.60
2010,05,18,20,29,3.60
2010,05,18,20,30,3.70
2010,05,18,20,31,7.10
2010,05,18,20,32,6.80
2010,05,18,20,33,10.10
2010,05,18,20,34,7.70
2010,05,18,20,35,10.60
2010,05,18,20,36,10.40
2010,05,18,20,37,7.30
2010,05,18,20,38,6.70
2010,05,18,20,39,7.80
2010,05,18,20,40,6.40
2010,05,18,20,41,12.30
2010,05,18,20,42,11.10
2010,05,18,20,43,10.70
2010,05,18,20,44,9.10
2010,05,18,20,45,7.30
2010,05,18,20,46,7.80
2010,05,18,20,47,7.80
2010,05,18,20,48,8.60
2010,05,18,20,49,8.00
2010,05,18,20,50,10.30
2010,05,18,20,51,7.70
2010,05,18,20,52,4.40
2010,05,18,20,53,3.50
2010,05,18,20,54,3.00
2010,05,18,20,55,2.20
2010,05,18,20,56,7.00
2010,05,18,20,57,6.60
2010,05,18,20,58,9.70
2010,05,18,20,59,10.90
2010,05,18,21,00,6.40
2010,05,18,21,01,6.90
2010,05,18,21,02,6.60
2010,05,18,21,03,11.00
2010,05,18,21,04,11.30
2010,05,18,21,05,11.20
2010,05,18,21,06,7.80
2010,05,18,21,07,5.20
2010,05,18,21,08,8.70
2010,05,18,21,09,9.70
2010,05,18,21,10,10.20
2010,05,18,21,11,6.00
2010,05,18,21,12,4.70
2010,05,18,21,13,9.30
2010,05,18,21,14,8.90
2010,05,18,21,15,11.10
2010,05,18,21,16,8.20
2010,05,18,21,17,10.30
2010,05,18,21,18,5.10
2010,05,18,21,19,12.50
2010,05,18,21,20,7.10
2010,05,18,21,21,6.00
2010,05,18,21,22,7.60
2010,05,18,21,23,7.50
2010,05,18,21,24,6.80
2010,05,18,21,25,7.10
2010,05,18,21,26,5.30
2010,05,18,21,27,1.30
2010,05,18,21,28,3.10
2010,05,18,21,29,4.50
2010,05,18,21,30,4.40
2010,05,18,21,31,3.90
2010,05,18,21,32,5.30
2010,05,18,21,33,6.40
2010,05,18,21,34,5.10
2010,05,18,21,35,5.40
2010,05,18,21,36,4.20
2010,05,18,21,37,5.30
2010,05,18,21,38,4.80
2010,05,18,21,39,5.50
2010,05,18,21,40,5.10
2010,05,18,21,41,5.80
2010,05,18,21,42,6.50
2010,05,18,21,43,12.90
2010,05,18,21,44,12.80
2010,05,18,21,45,9.40
2010,05,18,21,46,6.90
2010,05,18,21,47,8.10
2010,05,18,21,48,6.30
2010,05,18,21,49,6.50
2010,05,18,21,50,8.20
2010,05,18,21,51,7.70
2010,05,18,21,52,7.20
2010,05,18,21,53,7.50
2010,05,18,21,54,5.80
2010,05,18,21,55,5.80
2010,05,18,21,56,4.20
2010,05,18,21,57,4.70
2010,05,18,21,58,7.40
2010,05,18,21,59,8.80
2010,05,18,22,00,9.40
2010,05,18,22,01,10.10
2010,05,18,22,02,7.50
2010,05,18,22,03,9.80
2010,05,18,22,04,8.80
2010,05,18,22,05,6.50
2010,05,18,22,06,7.80
2010,05,18,22,07,10.20
2010,05,18,22,08,8.10
2010,05,18,22,09,7.50
2010,05,18,22,10,7.30
2010,05,18,22,11,6.20
2010,05,18,22,12,5.30
2010,05,18,22,13,4.70
2010,05,18,22,14,3.90
2010,05,18,22,15,2.50
2010,05,18,22,16,4.00
2010,05,18,22,17,6.30
2010,05,18,22,18,7.40
2010,05,18,22,19,8.30
2010,05,18,22,20,8.10
2010,05,18,22,21,9.20
2010,05,18,22,22,10.60
2010,05,18,22,23,13.90
2010,05,18,22,24,11.70
2010,05,18,22,25,10.80
2010,05,18,22,26,6.60
2010,05,18,22,27,7.70
2010,05,18,22,28,9.30
2010,05,18,22,29,6.40
2010,05,18,22,30,9.40
2010,05,18,22,31,14.00
2010,05,18,22,32,11.30
2010,05,18,22,33,11.40
2010,05,18,22,34,14.40
2010,05,18,22,35,12.00
2010,05,18,22,36,11.30
2010,05,18,22,37,11.60
2010,05,18,22,38,13.20
2010,05,18,22,39,13.00
2010,05,18,22,40,13.50
2010,05,18,22,41,12.40
2010,05,18,22,42,11.40
2010,05,18,22,43,12.70
2010,05,18,22,44,15.80
2010,05,18,22,45,13.60
2010,05,18,22,46,13.10
2010,05,18,22,47,11.90
2010,05,18,22,48,10.60
2010,05,18,22,49,11.40
2010,05,18,22,50,16.90
2010,05,18,22,51,13.90
2010,05,18,22,52,15.60
2010,05,18,22,53,11.30
2010,05,18,22,54,10.80
2010,05,18,22,55,9.70
2010,05,18,22,56,12.40
2010,05,18,22,57,15.90
2010,05,18,22,58,11.30
2010,05,18,22,59,12.70
2010,05,18,23,00,14.60
2010,05,18,23,01,14.50
2010,05,18,23,02,9.90
2010,05,18,23,03,9.50
2010,05,18,23,04,6.70
2010,05,18,23,05,6.50
2010,05,18,23,06,6.90
2010,05,18,23,07,10.30
2010,05,18,23,08,18.50
2010,05,18,23,09,17.40
2010,05,18,23,10,12.20
2010,05,18,23,11,7.60
2010,05,18,23,12,8.10
2010,05,18,23,13,8.20
2010,05,18,23,14,9.20
2010,05,18,23,15,13.20
2010,05,18,23,16,7.50
2010,05,18,23,17,8.30
2010,05,18,23,18,8.60
2010,05,18,23,19,7.70
2010,05,18,23,20,8.10
2010,05,18,23,21,7.30
2010,05,18,23,22,8.00
2010,05,18,23,23,7.90
2010,05,18,23,24,7.50
2010,05,18,23,25,7.90
2010,05,18,23,26,9.80
2010,05,18,23,27,11.50
2010,05,18,23,28,13.90
2010,05,18,23,29,11.80
2010,05,18,23,30,8.10
2010,05,18,23,31,10.90
2010,05,18,23,32,11.30
2010,05,18,23,33,13.20
2010,05,18,23,34,12.60
2010,05,18,23,35,8.00
2010,05,18,23,36,7.50
2010,05,18,23,37,10.30
2010,05,18,23,38,6.40
2010,05,18,23,39,7.70
2010,05,18,23,40,8.40
2010,05,18,23,41,7.70
2010,05,18,23,42,7.50
2010,05,18,23,43,6.30
2010,05,18,23,44,5.90
2010,05,18,23,45,5.40
2010,05,18,23,46,7.40
2010,05,18,23,47,6.00
2010,05,18,23,48,6.10
2010,05,18,23,49,5.80
2010,05,18,23,50,7.50
2010,05,18,23,51,7.80
2010,05,18,23,52,7.30
2010,05,18,23,53,5.90
2010,05,18,23,54,6.30
2010,05,18,23,55,5.40
2010,05,18,23,56,7.00
2010,05,18,23,57,6.40
2010,05,18,23,58,6.70
2010,05,18,23,59,6.30
